Theta_e
325 326 320 323 328 328 333 334 331 329 328 328 328 329 331 332 333 335 338 339 337 345 329 322 321 321 326 329 328 335 339 334 328 325 321 318 317 317 317 317 317 317 317 317 317 318 319 319 320
321 325 323 324 327 331 331 333 329 330 327 326 326 327 327 330 331 335 339 341 337 345 330 322 322 320 323 328 327 332 334 330 326 322 319 318 319 318 318 318 318 318 318 318 318 319 319 319 320
324 323 325 328 327 330 332 329 329 328 325 325 327 327 329 331 334 336 340 343 339 346 334 323 322 320 320 326 328 331 331 327 323 320 319 319 320 320 319 319 319 319 319 318 319 319 319 319 320
326 327 325 327 328 330 329 329 327 327 325 325 326 329 329 331 332 336 341 344 342 344 347 325 322 320 319 322 326 330 330 327 323 320 320 320 320 320 320 320 319 319 319 319 319 319 319 319 319
326 327 330 328 328 328 326 325 327 327 326 325 325 328 330 331 331 336 343 344 343 341 345 330 323 320 319 320 324 328 329 326 322 320 320 320 320 320 320 320 319 319 319 319 319 319 319 319 319
328 328 330 331 329 328 326 324 324 328 327 326 325 327 330 332 330 336 343 344 343 340 344 337 322 321 320 320 322 325 326 325 323 319 319 320 320 320 320 320 319 319 319 319 319 319 319 319 319
327 330 330 329 330 330 327 324 324 325 327 327 327 330 331 332 328 333 342 343 342 340 343 346 321 320 320 320 320 322 323 323 322 320 319 320 320 320 320 319 319 319 318 318 318 318 318 319 319
324 329 329 329 329 330 329 327 326 324 327 328 328 329 331 329 327 331 338 342 340 339 342 351 325 320 320 320 320 320 321 321 321 319 320 320 320 320 320 319 319 319 318 318 318 317 317 317 318
322 326 328 329 328 329 328 329 327 326 326 328 327 328 329 327 327 329 333 342 340 338 341 347 344 337 322 323 320 319 320 320 321 320 320 320 320 320 320 320 319 319 319 318 317 317 316 316 316
323 324 325 326 328 328 327 329 328 327 326 327 328 327 328 327 327 327 329 336 340 340 340 342 345 344 342 340 335 320 320 320 321 321 321 321 321 334 332 329 321 319 319 318 318 318 317 316 317
322 323 324 324 324 325 327 327 328 329 328 326 326 327 327 326 326 326 327 331 341 340 340 340 345 344 344 341 341 327 332 324 323 323 326 325 333 338 341 340 335 323 319 319 319 320 319 319 329
322 322 323 323 322 323 325 326 327 328 328 327 325 326 325 325 326 325 325 328 332 340 338 339 344 344 345 342 341 342 338 340 340 338 332 339 331 340 342 343 342 341 336 328 332 338 337 336 335
320 321 321 321 321 321 322 325 326 327 327 327 325 323 325 325 323 324 325 326 329 331 339 337 340 346 347 344 342 341 341 340 341 342 343 340 344 341 345 343 341 340 341 339 341 338 337 337 337
317 318 318 319 320 319 321 323 323 324 325 326 323 322 324 327 323 322 323 326 329 332 336 339 338 338 340 341 346 343 343 341 342 343 345 341 343 344 344 341 341 340 338 337 337 337 337 337 336
316 317 318 318 319 320 319 320 321 320 320 322 322 321 323 326 325 322 321 324 327 328 324 330 339 339 336 327 337 345 342 342 343 343 343 343 330 339 341 339 341 340 339 337 336 327 335 332 331
317 317 317 318 319 318 318 319 320 319 319 320 320 321 322 325 327 323 321 322 325 326 320 323 335 340 338 336 332 331 339 336 340 342 341 339 331 327 331 326 337 338 337 329 328 330 334 333 335
317 316 317 318 319 319 319 319 320 319 319 320 320 320 321 324 326 322 321 321 322 320 321 320 327 332 343 339 338 338 338 332 336 337 337 338 332 327 322 321 324 333 336 324 325 331 334 335 333
317 318 318 318 319 318 318 318 319 319 319 319 319 319 319 323 322 321 320 320 321 317 316 316 317 329 333 336 332 335 339 334 330 333 335 330 325 327 322 321 323 327 330 323 331 334 334 334 334
316 317 319 319 318 318 318 319 319 319 319 319 318 318 318 320 321 320 319 319 321 324 316 315 316 318 333 335 334 337 342 337 327 325 330 331 331 328 330 322 324 325 322 328 334 334 334 336 334
316 317 317 317 317 317 318 318 318 319 319 318 318 318 318 318 318 319 318 318 322 319 315 315 314 315 317 326 333 332 336 345 342 336 332 335 337 337 329 328 323 322 322 325 330 335 338 338 342
315 316 317 317 318 318 317 318 318 318 318 317 317 317 317 317 317 317 317 319 320 320 316 314 314 315 314 316 326 332 331 342 345 341 338 331 332 341 340 334 330 330 328 326 329 333 336 342 347
316 316 316 316 317 318 318 318 319 318 318 317 317 317 317 317 316 316 318 318 318 319 320 321 314 314 313 315 316 318 329 334 337 341 343 338 334 334 341 342 341 338 337 331 340 337 337 338 345
315 316 316 317 317 317 317 317 317 318 318 317 317 317 318 319 318 317 317 317 317 318 319 321 317 313 313 313 314 315 319 327 330 335 343 340 341 335 334 335 334 340 342 341 340 337 335 345 345
315 315 316 316 316 316 317 317 317 318 318 318 317 316 316 316 318 318 317 317 316 317 318 320 318 323 315 317 313 313 314 319 322 329 332 335 342 345 341 332 334 335 345 343 345 341 341 337 341
315 315 316 317 317 318 318 317 317 317 317 317 318 315 314 315 317 317 317 317 317 317 318 320 320 322 321 322 325 326 320 315 315 315 321 331 334 337 345 346 347 350 350 351 347 342 345 337 340
316 317 316 320 320 319 317 317 317 316 316 315 314 314 315 316 317 317 317 317 318 317 317 319 321 323 324 324 325 326 326 326 326 326 325 329 329 331 333 341 344 347 349 341 341 347 349 341 337
316 317 317 318 318 318 318 319 318 316 315 315 314 315 317 316 316 316 316 316 318 318 318 319 321 321 321 324 326 328 328 327 327 324 324 330 331 328 330 340 345 343 342 345 342 345 344 340 334
316 316 318 318 317 317 317 317 317 317 317 315 316 316 316 316 315 315 315 315 316 317 318 319 320 320 320 320 323 326 328 329 329 328 327 321 323 326 335 337 337 337 346 344 342 342 344 340 333
316 315 317 317 321 322 320 318 317 317 316 317 316 316 316 316 316 316 316 316 316 316 317 318 319 319 320 320 320 322 326 328 330 330 330 330 325 318 316 325 341 344 344 348 349 347 341 334 336
316 317 319 321 320 319 318 317 316 316 317 317 316 316 316 316 316 316 316 316 316 316 316 316 316 317 319 319 319 319 321 324 327 330 332 332 332 328 327 331 340 343 348 349 348 341 344 345 347
Wind_Speed
9 10 6 8 7 8 16 19 4 1 5 7 7 5 9 14 12 5 4 5 4 15 16 17 16 19 23 24 22 21 19 18 18 17 17 16 16 17 16 15 13 12 11 10 10 9 8 7 7
7 7 7 11 9 13 12 16 7 9 10 2 6 9 12 12 8 7 11 8 4 15 17 21 18 21 23 25 25 24 22 20 19 18 18 18 17 16 15 14 13 12 10 8 8 7 7 6 6
7 6 12 8 13 15 13 7 1 4 5 7 4 3 5 5 9 10 10 8 4 15 19 22 20 23 24 27 27 26 24 23 21 20 19 18 17 16 15 13 12 10 9 7 6 6 5 5 5
5 8 8 10 18 16 12 6 8 5 5 6 4 6 5 5 10 14 15 10 8 16 20 22 22 24 25 27 29 28 25 24 22 20 19 18 17 15 14 12 10 9 7 6 5 4 4 3 2
10 12 11 14 19 20 5 10 13 6 7 6 9 12 3 4 12 16 13 9 14 19 21 24 25 25 28 29 30 29 28 26 23 22 20 18 16 14 13 11 9 7 6 5 3 2 1 1 1
17 16 15 17 20 19 3 13 16 17 14 10 7 16 7 1 15 17 13 5 15 22 23 25 29 27 29 29 30 30 29 27 25 23 21 19 16 14 12 10 8 7 6 5 4 3 4 4 5
19 14 20 23 21 17 9 14 11 16 17 11 6 4 7 5 14 14 13 2 12 22 23 24 32 30 31 31 30 30 30 29 27 26 24 21 18 15 13 11 10 8 7 7 6 6 7 8 8
24 15 26 23 19 22 12 14 9 12 16 10 3 8 6 10 13 11 11 3 11 22 23 19 31 33 33 32 32 32 31 29 28 27 25 23 20 17 15 14 12 11 10 10 9 9 9 11 11
24 18 21 27 25 19 18 14 16 12 14 12 13 10 5 6 12 10 9 5 11 21 23 21 23 28 33 32 33 32 31 30 29 27 26 23 20 19 18 16 15 14 13 12 12 11 12 13 14
23 17 28 25 22 22 23 24 16 12 16 21 22 16 10 7 11 11 9 6 9 19 23 22 23 24 26 25 28 33 32 31 30 28 27 25 22 16 16 16 18 16 15 15 15 15 16 16 15
26 25 23 24 30 32 26 25 19 19 14 17 27 25 12 13 12 11 12 3 4 16 21 22 22 25 24 24 23 30 28 30 31 29 27 25 18 16 15 14 18 19 18 18 18 18 19 18 13
25 30 27 27 33 29 24 25 25 24 24 16 12 22 22 16 16 14 12 7 5 9 21 21 21 24 25 24 24 21 25 23 23 26 28 23 24 19 17 14 13 15 13 14 13 12 12 13 13
22 23 27 28 27 30 27 25 27 32 27 22 19 21 27 17 15 14 11 6 3 6 7 22 23 23 24 29 24 24 24 25 23 22 24 25 20 21 19 17 15 13 10 11 11 11 13 13 15
19 22 24 29 26 23 26 25 28 34 29 27 16 24 29 31 12 10 10 7 4 5 13 15 21 27 30 33 25 27 23 23 24 22 21 26 24 21 19 18 16 15 14 11 12 12 14 14 15
19 20 18 21 25 22 22 25 29 32 31 32 26 25 26 27 25 12 7 6 4 5 11 18 21 22 24 29 36 24 32 27 22 24 24 29 27 25 25 18 16 15 15 16 15 17 16 17 16
14 18 20 21 22 25 22 27 25 33 33 38 22 26 24 25 29 21 11 8 4 5 10 15 15 11 16 21 29 34 27 25 25 22 24 26 30 26 26 24 20 19 18 16 17 6 11 17 17
17 16 20 21 22 16 21 27 22 21 14 14 22 16 22 21 22 18 15 9 5 9 6 9 15 22 16 12 16 24 26 33 25 26 23 25 29 31 29 26 24 26 24 21 22 12 13 19 20
16 18 17 17 10 14 20 24 18 21 16 18 18 20 21 19 19 18 15 7 5 9 11 5 8 29 33 24 19 23 33 32 31 29 26 29 32 35 33 27 30 34 30 25 18 15 20 21 22
19 15 19 16 9 7 12 17 19 20 22 20 21 23 22 20 16 15 14 8 6 8 11 10 7 9 26 38 36 22 26 34 37 38 34 33 31 34 40 37 38 36 34 24 17 21 20 22 23
16 19 19 17 14 10 16 19 19 20 18 24 23 25 24 22 20 19 14 13 9 10 13 11 13 8 12 19 38 37 22 20 23 32 38 34 31 34 39 42 40 43 38 35 29 27 20 21 16
18 18 17 17 12 12 14 22 22 21 28 28 29 28 23 22 17 18 18 15 10 8 11 14 17 19 13 16 18 30 36 31 23 28 39 38 42 32 34 37 37 34 41 40 34 34 29 23 17
17 17 16 16 12 14 15 13 14 5 10 12 18 15 14 17 18 16 15 14 9 6 5 5 17 22 18 19 18 17 19 23 27 29 25 29 43 48 28 22 19 34 40 38 29 31 28 27 22
14 15 12 11 16 17 20 13 14 20 19 13 12 16 14 10 11 15 13 11 8 6 4 2 7 9 11 14 20 19 17 18 20 22 19 23 30 33 50 45 48 43 47 38 32 33 32 23 21
13 18 14 16 14 17 21 19 17 14 14 14 14 12 12 9 11 9 8 8 8 7 5 4 4 6 9 12 13 16 21 24 20 15 18 23 24 27 34 35 35 43 48 42 39 33 30 28 27
14 12 13 16 15 17 18 11 12 4 2 12 18 14 9 11 10 11 9 9 9 8 8 5 5 8 9 9 10 12 17 20 22 25 27 25 25 27 27 30 33 43 45 38 33 31 31 31 29
13 15 11 12 13 13 4 8 9 9 14 7 4 9 8 10 12 6 8 9 10 11 9 8 7 7 8 9 11 12 16 15 17 20 21 22 23 25 26 30 35 37 36 30 32 27 29 30 27
20 18 16 19 21 18 14 21 8 12 8 7 12 12 12 8 7 10 11 10 10 11 11 11 10 10 10 12 12 12 13 16 20 24 25 24 26 29 28 24 30 33 31 32 28 29 30 27 27
20 5 10 11 18 19 17 20 14 19 17 13 10 10 13 7 12 16 18 16 14 13 14 15 15 15 14 13 14 14 15 16 19 21 24 27 29 30 27 28 33 34 31 30 32 30 29 28 27
15 18 14 13 7 6 13 8 9 10 12 15 6 5 8 14 17 18 19 18 18 17 17 18 18 17 17 16 15 16 17 18 19 21 23 25 29 32 33 31 28 26 24 30 33 32 27 28 26
14 14 17 5 13 15 15 17 8 4 8 6 7 9 18 15 15 18 18 17 18 18 19 20 21 21 20 20 19 19 20 20 22 21 22 23 26 28 28 27 28 29 27 32 34 34 25 25 22
Wind_Direction
346 329 307 260 241 234 247 239 256 35 237 240 310 230 258 319 351 28 64 10 121 175 178 161 173 170 165 161 159 159 162 161 158 154 151 147 146 146 147 149 149 148 146 141 132 126 118 111 103
347 318 280 272 252 248 231 245 148 212 64 10 239 237 253 261 29 14 360 21 164 184 189 168 179 172 169 166 162 161 164 166 161 160 158 155 155 154 155 154 153 150 145 142 134 127 121 117 106
330 299 282 238 237 251 266 23 53 166 87 268 248 247 348 359 29 337 301 348 198 190 191 177 179 173 173 170 168 166 169 168 165 167 165 164 163 161 162 158 157 152 147 146 142 134 132 124 114
276 247 248 258 256 244 278 7 306 38 193 235 289 261 170 99 341 323 307 268 233 199 188 183 176 179 175 173 170 172 174 174 172 173 173 172 172 170 168 165 164 160 160 162 162 162 143 131 124
254 261 259 244 255 261 214 285 268 246 261 244 226 255 195 90 340 333 321 277 215 199 192 191 176 184 176 177 175 176 177 179 179 180 180 180 182 181 179 178 176 177 182 185 189 209 214 239 254
247 238 252 246 233 254 219 260 259 243 259 251 239 241 250 122 351 343 337 296 207 197 189 204 179 186 180 181 178 180 182 183 186 187 187 187 191 193 193 195 196 200 205 217 230 253 273 278 279
247 250 242 255 262 235 195 253 238 265 249 236 237 257 229 39 344 345 351 312 194 193 188 210 185 187 185 185 185 186 187 188 191 193 193 194 198 202 206 212 215 221 230 231 241 254 264 272 274
240 250 255 255 253 256 221 210 241 270 252 256 199 241 236 23 341 342 347 324 195 191 191 197 193 188 192 191 191 193 194 195 197 197 198 201 203 210 215 222 227 232 238 241 241 249 257 264 271
231 244 246 244 247 256 249 200 210 236 248 256 246 270 308 330 335 338 346 347 197 196 194 197 192 192 194 196 196 198 201 201 203 204 206 207 212 219 226 229 235 239 246 251 255 256 259 260 265
226 235 243 253 256 252 254 251 193 192 229 241 261 242 238 295 325 331 326 347 213 204 201 201 194 196 193 196 201 201 205 208 209 210 213 213 216 223 231 242 242 245 249 256 260 260 262 263 266
219 241 254 252 252 262 265 252 244 218 203 237 233 245 313 302 303 306 324 321 256 213 205 204 199 203 195 196 204 207 205 210 213 214 216 220 216 218 237 227 256 246 250 258 264 268 265 264 260
240 242 252 260 266 266 262 268 263 243 227 225 239 249 245 291 297 301 293 319 279 236 215 208 204 205 202 202 208 207 203 209 209 216 219 212 216 219 216 227 236 263 244 268 242 266 283 278 266
237 252 251 258 257 266 269 250 255 258 253 237 248 261 243 251 301 295 282 290 242 253 238 211 212 206 207 200 210 206 209 207 210 213 222 217 218 216 225 223 224 234 247 249 257 254 249 260 264
260 250 263 258 252 253 257 257 259 256 260 252 243 252 249 238 255 294 294 274 253 244 204 207 227 226 225 210 198 212 207 209 210 214 218 235 219 223 225 236 231 230 234 236 247 259 255 259 267
256 267 261 258 256 244 251 253 248 254 257 251 238 244 246 245 233 247 272 287 247 254 234 200 210 218 237 230 216 208 209 200 215 213 221 232 233 219 232 234 237 235 234 234 235 265 255 270 270
258 249 255 245 235 241 240 254 247 247 245 241 249 250 244 247 231 237 233 235 253 245 247 234 190 209 248 236 229 224 226 226 213 221 225 236 243 238 241 239 236 238 229 245 256 258 266 298 278
234 252 246 246 246 233 225 246 252 246 241 250 247 248 256 239 225 223 221 216 220 238 255 231 217 226 242 252 245 234 237 229 225 224 225 235 247 250 243 251 251 242 230 246 249 253 285 263 270
252 235 229 254 205 207 252 256 253 253 218 232 238 239 244 235 222 208 215 202 191 223 234 252 209 215 225 241 268 263 239 230 232 230 233 239 247 253 247 249 246 262 252 251 250 237 269 261 271
279 291 284 293 244 255 263 271 261 234 207 227 239 243 241 230 238 217 219 240 233 198 223 242 249 231 216 224 242 239 247 237 249 244 249 250 258 260 255 254 254 256 253 245 240 241 256 255 269
272 264 259 261 256 249 260 263 261 257 249 244 245 236 235 238 232 235 230 238 242 249 240 243 255 243 227 218 225 243 247 249 252 243 245 250 268 268 251 255 250 254 252 243 241 258 246 258 259
256 258 261 262 261 238 265 266 258 252 250 247 246 243 240 224 216 232 227 233 231 237 249 229 247 254 245 239 223 224 242 244 232 239 232 236 262 271 267 253 259 251 254 250 239 244 253 247 244
256 253 241 274 272 260 246 274 248 306 215 236 234 229 226 224 219 214 213 220 225 221 248 262 240 242 261 245 247 245 236 240 247 241 228 236 233 258 263 249 276 268 254 249 238 243 256 261 229
267 285 295 258 258 269 258 260 260 254 217 192 219 209 201 195 216 209 209 210 228 228 216 215 263 277 259 249 251 242 257 252 251 244 243 238 241 248 260 256 264 271 262 246 230 245 250 242 240
293 275 251 258 255 252 251 248 261 243 215 183 195 195 201 217 194 208 219 223 226 227 218 226 233 237 259 260 261 260 253 249 250 251 260 249 257 253 248 242 231 238 241 239 236 237 248 258 243
233 256 268 249 229 244 241 234 242 18 150 195 191 191 220 228 214 236 247 257 253 255 247 255 249 279 281 268 253 252 258 259 257 249 240 242 247 248 254 263 244 234 239 232 231 242 237 244 237
215 248 240 262 278 291 111 232 245 245 177 212 262 250 250 230 233 246 270 270 274 269 264 267 276 283 283 277 277 270 259 260 263 264 262 250 251 253 247 255 252 233 233 244 240 231 232 237 234
256 218 258 278 269 279 267 258 190 169 189 210 232 218 211 216 251 268 275 279 285 282 280 281 280 288 296 297 289 279 271 271 264 250 244 250 254 249 238 240 249 252 238 235 238 227 237 231 231
262 216 245 251 253 250 255 266 265 189 190 196 203 206 225 248 281 277 275 277 278 275 273 274 277 282 289 292 290 288 281 277 276 275 269 260 253 246 245 250 254 247 236 235 236 232 227 226 231
241 231 222 238 211 264 276 260 344 159 186 180 192 238 250 258 285 284 282 278 273 272 273 274 273 274 277 282 285 282 277 276 276 273 270 266 265 262 259 253 251 256 240 228 230 224 219 224 225
269 213 258 232 256 259 264 259 175 167 251 195 208 244 254 284 285 282 282 279 277 272 272 274 275 272 274 276 280 282 280 278 276 279 275 270 273 265 263 257 246 235 229 225 226 225 208 216 214